Location: Bron Breck
(40.6655°N, 111.8083°W)
Time: 06:31:49
(UTC+00:00)

ISS - Pass Details

Date: 06 March 2021
Orbit: 418 x 422 km, 51.6° (Epoch: 16 April)

Event Time Altitude Azimuth Distance (km) Brightness Sun altitude
Exits shadow 12:25:30 12° 337° (NNW) 1,408 -1.3 -17.4°
Maximum altitude 12:27:27 17° 16° (NNE) 1,143 -1.3 -17.0°
Drops below altitude 10° 12:29:45 10° 59° (ENE) 1,498 0.1 -16.6°
Sets 12:32:23 0° 81° (E) 2,361 1.9 -16.1°
